When you browse on this site, cookies collect data to enhance your experience and personalize the content and advertising you see.
Visit our Privacy Policy to learn more. By continuing to use the site, you agree to this use of cookies and data.
  • In Austria
  • List of Countries
  • For 7 days
  • Water Temperature
  • Weather Map
  • News
  • Weather Widgets
  • user-avatar
    Login

    Hourly Weather Bijeljina

    Today, 18 October, Friday

    Time Temperature Precipitation Wind Pressure Humidity
    00:00 +15°C° 0 mm 0 mps 755 mmHg 73%
    01:00 +15°C° 0 mm 0 mps 755 mmHg 78%
    02:00 +14°C° 0 mm 0 mps 755 mmHg 79%
    03:00 +15°C° 0 mm 1 mps 754 mmHg 81%
    04:00 +15°C° 0 mm 1 mps 754 mmHg 83%
    05:00 +15°C° 0 mm 1 mps 754 mmHg 82%
    06:00 +15°C° 0 mm 1 mps 755 mmHg 82%
    07:00 +15°C° 0 mm 1 mps 755 mmHg 81%
    08:00 +19°C° 0 mm 1 mps 755 mmHg 73%
    09:00 +21°C° 0 mm 1 mps 755 mmHg 64%
    10:00 +23°C° 0 mm 1 mps 755 mmHg 56%
    11:00 +24°C° 0 mm 1 mps 754 mmHg 53%
    12:00 +25°C° 0 mm 2 mps 754 mmHg 49%
    13:00 +26°C° 0 mm 2 mps 754 mmHg 46%
    14:00 +25°C° 0 mm 2 mps 753 mmHg 47%
    15:00 +25°C° 0 mm 2 mps 753 mmHg 49%
    16:00 +24°C° 0 mm 2 mps 753 mmHg 51%
    17:00 +22°C° 0 mm 1 mps 753 mmHg 55%
    18:00 +21°C° 0 mm 1 mps 753 mmHg 59%
    19:00 +17°C° 0 mm 0 mps 754 mmHg 63%
    20:00 +16°C° 0 mm 0 mps 754 mmHg 65%
    21:00 +16°C° 0 mm 0 mps 754 mmHg 67%
    22:00 +18°C° 0 mm 1 mps 754 mmHg 69%
    23:00 +16°C° 0 mm 1 mps 754 mmHg 71%

    Tomorrow, 19 October, Saturday

    Time Temperature Precipitation Wind Pressure Humidity
    00:00 +16°C° 0 mm 1 mps 754 mmHg 74%
    01:00 +15°C° 0 mm 1 mps 754 mmHg 76%
    02:00 +15°C° 0 mm 1 mps 754 mmHg 78%
    03:00 +15°C° 0 mm 1 mps 754 mmHg 79%
    04:00 +14°C° 0 mm 1 mps 754 mmHg 81%
    05:00 +15°C° 0 mm 1 mps 754 mmHg 79%
    06:00 +15°C° 0 mm 1 mps 754 mmHg 78%
    07:00 +15°C° 0 mm 1 mps 755 mmHg 76%
    08:00 +19°C° 0 mm 1 mps 754 mmHg 67%
    09:00 +21°C° 0 mm 1 mps 754 mmHg 58%
    10:00 +24°C° 0 mm 1 mps 754 mmHg 49%
    11:00 +23°C° 0 mm 0 mps 754 mmHg 44%
    12:00 +24°C° 0 mm 0 mps 754 mmHg 39%
    13:00 +26°C° 0 mm 0 mps 754 mmHg 34%
    14:00 +25°C° 0 mm 0 mps 753 mmHg 36%
    15:00 +26°C° 0 mm 1 mps 753 mmHg 38%
    16:00 +25°C° 0 mm 1 mps 753 mmHg 40%
    17:00 +23°C° 0 mm 1 mps 753 mmHg 45%
    18:00 +22°C° 0 mm 1 mps 754 mmHg 49%
    19:00 +18°C° 0 mm 0 mps 754 mmHg 54%
    20:00 +19°C° 0 mm 1 mps 754 mmHg 55%
    21:00 +19°C° 0 mm 1 mps 755 mmHg 56%
    22:00 +18°C° 0 mm 1 mps 755 mmHg 58%
    23:00 +18°C° 0 mm 1 mps 755 mmHg 59%

    Day after tomorrow, 20 October, Sunday

    Time Temperature Precipitation Wind Pressure Humidity
    00:00 +18°C° 0 mm 1 mps 755 mmHg 60%
    01:00 +16°C° 0 mm 1 mps 755 mmHg 61%
    02:00 +16°C° 0 mm 1 mps 755 mmHg 63%
    03:00 +15°C° 0 mm 1 mps 755 mmHg 65%
    04:00 +15°C° 0 mm 1 mps 755 mmHg 66%
    05:00 +15°C° 0 mm 1 mps 755 mmHg 66%
    06:00 +15°C° 0 mm 1 mps 755 mmHg 66%
    07:00 +16°C° 0 mm 1 mps 755 mmHg 66%
    08:00 +19°C° 0 mm 1 mps 756 mmHg 57%
    09:00 +22°C° 0 mm 1 mps 756 mmHg 49%
    10:00 +25°C° 0 mm 1 mps 756 mmHg 41%
    11:00 +26°C° 0 mm 1 mps 755 mmHg 37%
    12:00 +27°C° 0 mm 1 mps 755 mmHg 33%
    13:00 +29°C° 0 mm 1 mps 755 mmHg 29%
    14:00 +28°C° 0 mm 1 mps 755 mmHg 32%
    15:00 +27°C° 0 mm 1 mps 755 mmHg 34%
    16:00 +26°C° 0 mm 1 mps 755 mmHg 36%
    17:00 +24°C° 0 mm 1 mps 755 mmHg 40%
    18:00 +22°C° 0 mm 1 mps 755 mmHg 44%
    19:00 +21°C° 0 mm 1 mps 755 mmHg 48%
    20:00 +20°C° 0 mm 1 mps 756 mmHg 49%
    21:00 +20°C° 0 mm 1 mps 756 mmHg 50%
    22:00 +18°C° 0 mm 2 mps 756 mmHg 51%
    23:00 +18°C° 0 mm 2 mps 756 mmHg 52%

    21 October, Monday

    Time Temperature Precipitation Wind Pressure Humidity
    00:00 +18°C° 0 mm 1 mps 756 mmHg 53%
    01:00 +18°C° 0 mm 1 mps 756 mmHg 54%
    02:00 +16°C° 0 mm 1 mps 756 mmHg 55%
    03:00 +16°C° 0 mm 1 mps 756 mmHg 55%
    04:00 +16°C° 0 mm 1 mps 756 mmHg 56%
    05:00 +16°C° 0 mm 1 mps 756 mmHg 55%
    06:00 +16°C° 0 mm 1 mps 756 mmHg 54%
    07:00 +16°C° 0 mm 1 mps 757 mmHg 53%
    08:00 +20°C° 0 mm 1 mps 757 mmHg 45%
    09:00 +23°C° 0 mm 1 mps 757 mmHg 38%
    10:00 +26°C° 0 mm 1 mps 757 mmHg 30%
    11:00 +28°C° 0 mm 1 mps 757 mmHg 27%
    12:00 +29°C° 0 mm 1 mps 756 mmHg 25%
    13:00 +31°C° 0 mm 1 mps 756 mmHg 22%
    14:00 +30°C° 0 mm 1 mps 756 mmHg 25%
    15:00 +29°C° 0 mm 1 mps 756 mmHg 28%
    16:00 +28°C° 0 mm 1 mps 756 mmHg 31%
    17:00 +26°C° 0 mm 1 mps 756 mmHg 34%
    18:00 +24°C° 0 mm 1 mps 757 mmHg 37%
    19:00 +20°C° 0 mm 0 mps 757 mmHg 40%
    20:00 +19°C° 0 mm 0 mps 757 mmHg 41%
    21:00 +19°C° 0 mm 0 mps 757 mmHg 43%
    22:00 +18°C° 0 mm 0 mps 758 mmHg 44%
    23:00 +20°C° 0 mm 1 mps 758 mmHg 46%

    22 October, Tuesday

    Time Temperature Precipitation Wind Pressure Humidity
    00:00 +19°C° 0 mm 1 mps 758 mmHg 47%
    01:00 +19°C° 0 mm 1 mps 758 mmHg 49%
    02:00 +18°C° 0 mm 1 mps 758 mmHg 51%
    03:00 +18°C° 0 mm 1 mps 758 mmHg 54%
    04:00 +16°C° 0 mm 1 mps 758 mmHg 56%
    05:00 +16°C° 0 mm 1 mps 758 mmHg 58%
    06:00 +18°C° 0 mm 1 mps 759 mmHg 60%
    07:00 +18°C° 0 mm 1 mps 759 mmHg 61%
    08:00 +20°C° 0 mm 1 mps 759 mmHg 56%
    09:00 +22°C° 0 mm 1 mps 759 mmHg 52%
    10:00 +24°C° 0 mm 1 mps 759 mmHg 47%
    11:00 +25°C° 0 mm 2 mps 759 mmHg 44%
    12:00 +26°C° 0 mm 2 mps 759 mmHg 42%
    13:00 +28°C° 0 mm 2 mps 758 mmHg 40%
    14:00 +27°C° 0 mm 2 mps 758 mmHg 43%
    15:00 +26°C° 0 mm 2 mps 758 mmHg 46%
    16:00 +26°C° 0 mm 2 mps 758 mmHg 49%
    17:00 +24°C° 0 mm 1 mps 758 mmHg 54%
    18:00 +22°C° 0 mm 1 mps 758 mmHg 60%
    19:00 +20°C° 0 mm 1 mps 758 mmHg 65%
    20:00 +20°C° 0 mm 1 mps 758 mmHg 67%
    21:00 +17°C° 0 mm 0 mps 759 mmHg 69%
    22:00 +17°C° 0 mm 0 mps 759 mmHg 70%
    23:00 +17°C° 0 mm 0 mps 759 mmHg 72%

    23 October, Wednesday

    Time Temperature Precipitation Wind Pressure Humidity
    00:00 +16°C° 0 mm 0 mps 758 mmHg 73%
    01:00 +16°C° 0 mm 0 mps 758 mmHg 75%
    02:00 +15°C° 0 mm 0 mps 758 mmHg 76%
    03:00 +15°C° 0 mm 0 mps 758 mmHg 78%
    04:00 +15°C° 0 mm 0 mps 758 mmHg 79%
    05:00 +15°C° 0 mm 0 mps 758 mmHg 78%
    06:00 +15°C° 0 mm 0 mps 758 mmHg 77%
    07:00 +15°C° 0 mm 0 mps 758 mmHg 77%
    08:00 +19°C° 0 mm 1 mps 758 mmHg 69%
    09:00 +21°C° 0 mm 1 mps 758 mmHg 61%
    10:00 +23°C° 0 mm 2 mps 757 mmHg 53%
    11:00 +25°C° 0 mm 2 mps 757 mmHg 49%
    12:00 +26°C° 0 mm 2 mps 757 mmHg 45%
    13:00 +27°C° 0 mm 3 mps 756 mmHg 41%
    14:00 +27°C° 0 mm 2 mps 756 mmHg 43%
    15:00 +26°C° 0 mm 2 mps 756 mmHg 45%
    16:00 +25°C° 0 mm 2 mps 755 mmHg 47%
    17:00 +23°C° 0 mm 2 mps 755 mmHg 52%
    18:00 +22°C° 0 mm 1 mps 756 mmHg 56%
    19:00 +20°C° 0 mm 1 mps 756 mmHg 61%
    20:00 +19°C° 0 mm 1 mps 756 mmHg 63%
    21:00 +19°C° 0 mm 1 mps 756 mmHg 65%
    22:00 +18°C° 0 mm 1 mps 756 mmHg 68%
    23:00 +18°C° 0 mm 1 mps 756 mmHg 69%
    Show more